Sigfox identifier Datetime Temperature Humidity SNR
003BD16C 2018-10-09 08:51:08 20.7 41 22.2
003BD16C 2018-10-09 07:45:21 20.7 41 22.3
003BD16C 2018-10-09 06:39:38 20.7 40 22.6
003BD16C 2018-10-09 05:33:54 20.7 40 22.8
003BD16C 2018-10-09 01:10:49 20.7 39 22
003BD16C 2018-10-09 00:05:05 20.7 38 21.9
003BD16C 2018-10-08 22:59:22 20.7 38 22.3
003BD16C 2018-10-08 21:53:37 20.7 38 22.5
003BD16C 2018-10-08 20:47:55 20.7 38 22.6
003BD16C 2018-10-08 19:42:16 20.9 37 22.9
003BD16C 2018-10-08 18:36:36 20.9 37 23.2
003BD16C 2018-10-08 17:30:49 20.8 37 23.1
003BD16C 2018-10-08 16:25:06 20.7 37 22.4
003BD16C 2018-10-08 15:19:22 20.7 37 22.6
003BD16C 2018-10-08 14:13:37 20.5 36 21.5
003BD16C 2018-10-08 13:07:54 20.5 35 21.6
003BD16C 2018-10-08 12:02:08 20.3 34 21.7
003BD16C 2018-10-08 10:56:23 20.2 34 21.7
003BD16C 2018-10-08 09:50:36 20.1 34 22
003BD16C 2018-10-08 08:44:51 20.1 34 22.1
003BD16C 2018-10-08 07:39:04 20.1 35 22
003BD16C 2018-10-08 06:33:21 20.1 35 22.1
003BD16C 2018-10-08 05:27:36 20.1 35 21.8
003BD16C 2018-10-08 04:21:52 20.1 35 22.2
003BD16C 2018-10-08 03:16:10 20.2 36 22.1
003BD16C 2018-10-08 02:10:25 20.3 36 22.2
003BD16C 2018-10-08 01:04:40 20.3 37 22.3
003BD16C 2018-10-07 23:58:55 20.2 37 22.3
003BD16C 2018-10-07 22:53:09 20.3 37 23
003BD16C 2018-10-07 21:47:25 20.3 38 23.3
003BD16C 2018-10-07 20:41:36 20.3 38 23.3
003BD16C 2018-10-07 19:35:45 20.3 38 23.1
003BD16C 2018-10-07 18:29:57 20.4 38 23
003BD16C 2018-10-07 17:24:08 20.3 38 22.9
003BD16C 2018-10-07 16:18:22 20.3 38 22.5
003BD16C 2018-10-07 15:12:35 20.3 38 22.4
003BD16C 2018-10-07 14:06:47 20.3 38 22.4
003BD16C 2018-10-07 13:01:01 20.5 38 22.4
003BD16C 2018-10-07 11:55:19 20.4 38 22.2
003BD16C 2018-10-07 10:49:36 20.4 38 22.4
003BD16C 2018-10-07 09:43:47 20.5 38 22.6
003BD16C 2018-10-07 08:37:55 20.5 38 22.6
003BD16C 2018-10-07 07:32:07 20.5 39 22.7
003BD16C 2018-10-07 06:26:24 20.5 39 22.6
003BD16C 2018-10-07 05:20:40 20.5 39 22.6
003BD16C 2018-10-07 04:14:56 20.5 39 22.6
003BD16C 2018-10-07 03:09:12 20.5 39 22.6
003BD16C 2018-10-07 02:03:29 20.5 39 22.7
003BD16C 2018-10-07 00:57:46 20.6 39 22.7
003BD16C 2018-10-06 23:52:05 20.6 39 22.5
003BD16C 2018-10-06 22:46:24 20.7 39 22.2
003BD16C 2018-10-06 21:40:37 20.6 39 22.2
003BD16C 2018-10-06 20:34:50 20.7 39 22.2
003BD16C 2018-10-06 19:29:05 20.7 39 20.9
003BD16C 2018-10-06 18:23:17 20.7 39 20.5
003BD16C 2018-10-06 17:17:33 20.7 39 20.6
003BD16C 2018-10-06 16:11:45 20.7 40 20.4
003BD16C 2018-10-06 15:05:59 20.7 40 20.2
003BD16C 2018-10-06 14:00:14 20.7 40 20.2
003BD16C 2018-10-06 12:54:30 20.7 39 20.3
003BD16C 2018-10-06 11:48:44 20.7 39 20.2
003BD16C 2018-10-06 10:43:01 20.7 39 20.4
003BD16C 2018-10-06 09:37:15 20.7 39 20.3
003BD16C 2018-10-06 08:31:31 20.7 40 20.6
003BD16C 2018-10-06 07:25:50 20.7 40 20.7
003BD16C 2018-10-06 06:20:06 20.8 40 20.7
003BD16C 2018-10-06 05:14:23 20.9 40 21
003BD16C 2018-10-06 04:08:39 20.9 40 21
003BD16C 2018-10-06 03:02:55 20.9 41 21
003BD16C 2018-10-06 01:57:12 20.9 41 21
003BD16C 2018-10-06 00:51:25 21.1 41 21.1
003BD16C 2018-10-05 23:45:42 21.1 41 21.5
003BD16C 2018-10-05 22:39:59 21.1 41 21.5
003BD16C 2018-10-05 21:34:15 21.2 42 21.4
003BD16C 2018-10-05 20:28:29 21.3 42 21.4
003BD16C 2018-10-05 19:22:45 21.3 42 21.4
003BD16C 2018-10-05 18:16:59 21.4 42 21.3
003BD16C 2018-10-05 17:11:11 21.4 43 21.2
003BD16C 2018-10-05 16:05:26 21.3 42 21.3
003BD16C 2018-10-05 14:59:40 21.3 42 21.2
003BD16C 2018-10-05 13:53:56 21.2 40 21.2
003BD16C 2018-10-05 12:48:15 21.1 39 21.3
003BD16C 2018-10-05 11:42:24 20.9 37 21.5
003BD16C 2018-10-05 10:36:41 20.7 35 21.6
003BD16C 2018-10-05 09:30:59 20.7 34 21.6
003BD16C 2018-10-05 08:25:18 20.5 32 21.6
003BD16C 2018-10-05 07:19:36 20.5 31 21.5
003BD16C 2018-10-05 06:13:55 20.5 31 21.5
003BD16C 2018-10-05 05:08:13 20.5 31 21.3
003BD16C 2018-10-05 04:02:29 20.6 31 20.9
003BD16C 2018-10-05 02:56:47 20.7 31 20.9
003BD16C 2018-10-05 01:51:06 20.7 31 20.8
003BD16C 2018-10-05 00:45:24 20.7 32 20.7
003BD16C 2018-10-04 23:39:40 20.9 32 20.5
003BD16C 2018-10-04 22:33:58 20.9 32 20.8
003BD16C 2018-10-04 21:28:15 20.9 31 20.6
003BD16C 2018-10-04 20:22:29 20.9 31 20
003BD16C 2018-10-04 19:16:46 20.9 31 20.1
003BD16C 2018-10-04 18:11:07 20.9 31 19.7
003BD16C 2018-10-04 17:05:26 20.7 32 19.8
003BD16C 2018-10-04 15:59:42 20.7 32 19.9
003BD16C 2018-10-04 14:53:57 20.6 33 20.1
003BD16C 2018-10-04 13:48:10 20.7 33 20.3
003BD16C 2018-10-04 12:42:26 20.5 34 20.5
003BD16C 2018-10-04 11:36:46 20.5 34 20.6
003BD16C 2018-10-04 08:19:24 20.1 34 20.7
003BD16C 2018-10-04 07:13:42 20.1 36 20.7
003BD16C 2018-10-04 06:07:58 20.2 37 20.6
003BD16C 2018-10-04 05:02:17 20.1 37 20.6
003BD16C 2018-10-04 03:56:35 20.2 38 20.9
003BD16C 2018-10-04 02:50:52 20.2 38 21
003BD16C 2018-10-04 01:45:09 20.3 39 20.8
003BD16C 2018-10-04 00:39:28 20.3 39 20.5
003BD16C 2018-10-03 23:33:44 20.3 40 20.4
003BD16C 2018-10-03 22:28:03 20.3 40 21
003BD16C 2018-10-03 21:22:15 20.4 41 19.9
003BD16C 2018-10-03 20:16:32 20.5 41 20
003BD16C 2018-10-03 19:10:48 20.5 41 20.2
003BD16C 2018-10-03 18:05:01 20.5 41 20.6
003BD16C 2018-10-03 16:59:13 20.7 43 13.9
003BD16C 2018-10-03 15:53:29 20.9 43 16.2
003BD16C 2018-10-03 14:47:42 21.1 48 0